Tracking 34141 objects as of 18-May-2026
HD Live streaming from Space Station
objects crossing your sky now

COSMOS 2211

Track COSMOS 2211 now!
10-day predictions
COSMOS 2211 is classified as:


NORAD ID: 22182
Int'l Code: 1992-068A
Perigee: 1,407.9 km
Apogee: 1,418.8 km
Inclination: 82.6 °
Period: 113.9 minutes
Semi major axis: 7784 km
RCS: 1.1084 m2 (large)
Launch date: October 20, 1992
Source: Commonwealth of Independent States (former USSR) (CIS)
Launch site: PLESETSK MISSILE AND SPACE COMPLEX (PKMTR)
Your satellite tracking list
Your tracking list is empty




NASA's NSSDC Master Catalog

Two Line Element Set (TLE):
1 22182U 92068A   26138.51133961  .00000019  00000-0  48075-4 0  9997
2 22182  82.5958 340.4412 0007042 212.5840 210.3741 12.64065287548991
Source of the keplerian elements: AFSPC